Location: Fort Wayne
(41.1310°N, 85.1290°W)
Time: 21:14:17
(UTC-05:00)

COSMOS 2406 - Visible Passes

Search period start: 22 December 2014 00:00
Search period end: 01 January 2015 00:00
Orbit: 845 x 864 km, 71.0° (Epoch: 22 December)

Date Brightness Start Highest point End Pass type
(mag) Time Alt. Az. Time Alt. Az. Time Alt. Az.
22 Dec 3.6 19:05:29 10° N 19:10:38 39° NE 19:10:38 39° NE visible
22 Dec 5.2 20:50:02 10° NW 20:52:49 24° WNW 20:52:49 24° WNW visible
23 Dec 3.6 18:54:18 10° N 18:59:39 39° ENE 19:01:33 31° E visible
23 Dec 4.8 20:38:54 10° NW 20:43:48 30° WSW 20:43:48 30° WSW visible
24 Dec 3.6 18:43:08 10° N 18:48:30 40° ENE 18:53:52 10° SE visible
24 Dec 4.9 20:27:46 10° NW 20:32:38 30° WSW 20:36:39 14° SSW visible
25 Dec 3.6 18:31:57 10° N 18:37:21 41° ENE 18:42:44 10° SE visible
25 Dec 5.0 20:16:38 10° NW 20:21:28 29° WSW 20:26:19 10° SSW visible
26 Dec 3.6 18:20:47 10° N 18:26:12 42° ENE 18:31:36 10° SE visible
26 Dec 5.1 20:05:29 10° NW 20:10:18 29° WSW 20:15:07 10° SSW visible
27 Dec 3.6 18:09:37 10° N 18:15:03 42° ENE 18:20:28 10° SE visible
27 Dec 5.1 19:54:21 10° NW 19:59:08 28° WSW 20:03:55 10° SSW visible
28 Dec 6.6 07:23:36 10° ESE 07:25:06 11° E 07:26:36 10° E visible
28 Dec 3.6 17:58:27 10° NNW 18:03:53 43° ENE 18:09:19 10° SE visible
28 Dec 5.2 19:43:13 10° NW 19:47:58 27° WSW 19:52:43 10° SSW visible
29 Dec 6.6 07:12:14 10° ESE 07:13:56 11° E 07:15:37 10° ENE visible
29 Dec 3.6 17:47:16 10° NNW 17:52:44 44° ENE 17:58:11 10° SE visible
29 Dec 5.3 19:32:05 10° NW 19:36:48 27° WSW 19:41:30 10° SSW visible
30 Dec 6.5 07:00:54 10° ESE 07:02:45 12° E 07:04:36 10° ENE visible
30 Dec 5.4 19:20:57 10° NW 19:25:38 26° WSW 19:30:18 10° SSW visible
31 Dec 6.5 06:49:34 10° ESE 06:51:34 12° E 06:53:35 10° ENE visible
31 Dec 5.5 19:09:50 10° NW 19:14:28 26° WSW 19:19:06 10° SSW visible
